owner,sensor,date,latitude,longitude,vertical_datum,sea_water_practical_salinity,qcFlag 
TABS,ioos:station:wmo:42043:1,2005-02-08T15:00:00Z,28.9818,-94.9186,2.0,27.38,11111222 
TABS,ioos:station:wmo:42043:1,2005-02-08T15:30:00Z,28.9818,-94.9186,2.0,27.39,11111222 
TABS,ioos:station:wmo:42043:1,2005-02-08T16:00:00Z,28.9818,-94.9186,2.0,27.34,11111222 
TABS,ioos:station:wmo:42043:1,2005-02-08T16:30:00Z,28.9818,-94.9186,2.0,27.35,11111222 
TABS,ioos:station:wmo:42043:1,2005-02-08T17:00:00Z,28.9818,-94.9186,2.0,27.34,11111222 
TABS,ioos:station:wmo:42043:1,2005-02-08T17:30:00Z,28.9818,-94.9186,2.0,27.32,11111222 
TABS,ioos:station:wmo:42043:1,2005-02-08T18:00:00Z,28.9818,-94.9186,2.0,27.22,11111222 
TABS,ioos:station:wmo:42043:1,2005-02-08T18:30:00Z,28.9818,-94.9186,2.0,27.17,11111222 
TABS,ioos:station:wmo:42043:1,2005-02-08T19:00:00Z,28.9818,-94.9186,2.0,27.28,11111222 
TABS,ioos:station:wmo:42043:1,2005-02-08T19:30:00Z,28.9818,-94.9186,2.0,27.2,11111222 
TABS,ioos:station:wmo:42043:1,2005-02-08T20:00:00Z,28.9818,-94.9186,2.0,27.22,11111222 
TABS,ioos:station:wmo:42043:1,2005-02-08T20:30:00Z,28.9818,-94.9186,2.0,27.36,11111222 
TABS,ioos:station:wmo:42043:1,2005-02-08T21:00:00Z,28.9818,-94.9186,2.0,27.52,11111222 
TABS,ioos:station:wmo:42043:1,2005-02-08T21:30:00Z,28.9818,-94.9186,2.0,27.75,11111222 
TABS,ioos:station:wmo:42043:1,2005-02-08T22:00:00Z,28.9818,-94.9186,2.0,27.3,11111222 
TABS,ioos:station:wmo:42043:1,2005-02-08T22:30:00Z,28.9818,-94.9186,2.0,27.02,11111222 
TABS,ioos:station:wmo:42043:1,2005-02-08T23:00:00Z,28.9818,-94.9186,2.0,26.84,11111222 
TABS,ioos:station:wmo:42043:1,2005-02-08T23:30:00Z,28.9818,-94.9186,2.0,26.88,11111222 
TABS,ioos:station:wmo:42043:1,2005-02-10T00:00:00Z,28.9818,-94.9186,2.0,30.27,11111222 
TABS,ioos:station:wmo:42043:1,2005-02-10T00:30:00Z,28.9818,-94.9186,2.0,30.31,11111222 
TABS,ioos:station:wmo:42043:1,2005-02-10T01:00:00Z,28.9818,-94.9186,2.0,30.29,11111222 
TABS,ioos:station:wmo:42043:1,2005-02-10T01:30:00Z,28.9818,-94.9186,2.0,30.34,11111222 
TABS,ioos:station:wmo:42043:1,2005-02-10T02:00:00Z,28.9818,-94.9186,2.0,30.35,11111222 
TABS,ioos:station:wmo:42043:1,2005-02-10T02:30:00Z,28.9818,-94.9186,2.0,30.4,11111222 
TABS,ioos:station:wmo:42043:1,2005-02-10T03:00:00Z,28.9818,-94.9186,2.0,29.9,11111222 
TABS,ioos:station:wmo:42043:1,2005-02-10T03:30:00Z,28.9818,-94.9186,2.0,30.03,11111222 
TABS,ioos:station:wmo:42043:1,2005-02-10T04:00:00Z,28.9818,-94.9186,2.0,29.95,11111222 
TABS,ioos:station:wmo:42043:1,2005-02-10T04:30:00Z,28.9818,-94.9186,2.0,30.12,11111222 
TABS,ioos:station:wmo:42043:1,2005-02-10T05:00:00Z,28.9818,-94.9186,2.0,30.16,11111222 
TABS,ioos:station:wmo:42043:1,2005-02-10T05:30:00Z,28.9818,-94.9186,2.0,30.29,11111222 
TABS,ioos:station:wmo:42043:1,2005-02-10T06:00:00Z,28.9818,-94.9186,2.0,30.04,11111222 
TABS,ioos:station:wmo:42043:1,2005-02-10T06:30:00Z,28.9818,-94.9186,2.0,30.21,11111222 
TABS,ioos:station:wmo:42043:1,2005-02-10T07:00:00Z,28.9818,-94.9186,2.0,30.17,11111222 
TABS,ioos:station:wmo:42043:1,2005-02-10T07:30:00Z,28.9818,-94.9186,2.0,29.84,11111222 
TABS,ioos:station:wmo:42043:1,2005-02-10T08:00:00Z,28.9818,-94.9186,2.0,28.95,11111222 
TABS,ioos:station:wmo:42043:1,2005-02-10T08:30:00Z,28.9818,-94.9186,2.0,28.97,11111222 
TABS,ioos:station:wmo:42043:1,2005-02-10T09:00:00Z,28.9818,-94.9186,2.0,29.37,11111222 
TABS,ioos:station:wmo:42043:1,2005-02-10T09:30:00Z,28.9818,-94.9186,2.0,28.7,11111222 
TABS,ioos:station:wmo:42043:1,2005-02-10T10:00:00Z,28.9818,-94.9186,2.0,29.06,11111222 
TABS,ioos:station:wmo:42043:1,2005-02-10T10:30:00Z,28.9818,-94.9186,2.0,28.04,11111222 
TABS,ioos:station:wmo:42043:1,2005-02-10T11:00:00Z,28.9818,-94.9186,2.0,28.6,11111222 
TABS,ioos:station:wmo:42043:1,2005-02-10T11:30:00Z,28.9818,-94.9186,2.0,27.8,11111222 
TABS,ioos:station:wmo:42043:1,2005-02-10T12:00:00Z,28.9818,-94.9186,2.0,28.1,11111222 
TABS,ioos:station:wmo:42043:1,2005-02-10T12:30:00Z,28.9818,-94.9186,2.0,27.81,11111222 
TABS,ioos:station:wmo:42043:1,2005-02-10T13:00:00Z,28.9818,-94.9186,2.0,27.74,11111222 
TABS,ioos:station:wmo:42043:1,2005-02-10T13:30:00Z,28.9818,-94.9186,2.0,27.49,11111222 
TABS,ioos:station:wmo:42043:1,2005-02-10T14:00:00Z,28.9818,-94.9186,2.0,27.2,11111222 
TABS,ioos:station:wmo:42043:1,2005-02-10T14:30:00Z,28.9818,-94.9186,2.0,27.45,11111222 
TABS,ioos:station:wmo:42043:1,2005-02-10T15:00:00Z,28.9818,-94.9186,2.0,26.48,11111222 
TABS,ioos:station:wmo:42043:1,2005-02-10T15:30:00Z,28.9818,-94.9186,2.0,26.94,11111222 
TABS,ioos:station:wmo:42043:1,2005-02-10T16:00:00Z,28.9818,-94.9186,2.0,27.05,11111222 
TABS,ioos:station:wmo:42043:1,2005-02-10T16:30:00Z,28.9818,-94.9186,2.0,26.4,11111222 
TABS,ioos:station:wmo:42043:1,2005-02-10T17:00:00Z,28.9818,-94.9186,2.0,26.93,11111222 
TABS,ioos:station:wmo:42043:1,2005-02-10T17:30:00Z,28.9818,-94.9186,2.0,27.32,11111222 
TABS,ioos:station:wmo:42043:1,2005-02-10T18:00:00Z,28.9818,-94.9186,2.0,26.86,11111222 
TABS,ioos:station:wmo:42043:1,2005-02-10T18:30:00Z,28.9818,-94.9186,2.0,26.9,11111222 
TABS,ioos:station:wmo:42043:1,2005-02-10T19:00:00Z,28.9818,-94.9186,2.0,26.72,11111222 
TABS,ioos:station:wmo:42043:1,2005-02-10T19:30:00Z,28.9818,-94.9186,2.0,26.76,11111222 
TABS,ioos:station:wmo:42043:1,2005-02-10T20:00:00Z,28.9818,-94.9186,2.0,27.03,11111222 
TABS,ioos:station:wmo:42043:1,2005-02-10T20:30:00Z,28.9818,-94.9186,2.0,27.22,11111222 
TABS,ioos:station:wmo:42043:1,2005-02-10T21:00:00Z,28.9818,-94.9186,2.0,27.34,11111222 
TABS,ioos:station:wmo:42043:1,2005-02-10T21:30:00Z,28.9818,-94.9186,2.0,27.29,11111222 
TABS,ioos:station:wmo:42043:1,2005-02-10T22:00:00Z,28.9818,-94.9186,2.0,27.32,11111222 
TABS,ioos:station:wmo:42043:1,2005-02-10T22:30:00Z,28.9818,-94.9186,2.0,27.45,11111222 
TABS,ioos:station:wmo:42043:1,2005-02-10T23:00:00Z,28.9818,-94.9186,2.0,27.21,11111222 
TABS,ioos:station:wmo:42043:1,2005-02-10T23:30:00Z,28.9818,-94.9186,2.0,27.35,11111222 
TABS,ioos:station:wmo:42043:1,2005-02-11T00:00:00Z,28.9818,-94.9186,2.0,27.4,11111222 
TABS,ioos:station:wmo:42043:1,2005-02-11T00:30:00Z,28.9818,-94.9186,2.0,27.54,11111222 
TABS,ioos:station:wmo:42043:1,2005-02-11T01:00:00Z,28.9818,-94.9186,2.0,27.61,11111222 
TABS,ioos:station:wmo:42043:1,2005-02-11T01:30:00Z,28.9818,-94.9186,2.0,27.31,11111222 
TABS,ioos:station:wmo:42043:1,2005-02-11T02:00:00Z,28.9818,-94.9186,2.0,27.45,11111222 
TABS,ioos:station:wmo:42043:1,2005-02-11T02:30:00Z,28.9818,-94.9186,2.0,27.52,11111222 
TABS,ioos:station:wmo:42043:1,2005-02-11T03:00:00Z,28.9818,-94.9186,2.0,27.19,11111222 
TABS,ioos:station:wmo:42043:1,2005-02-11T03:30:00Z,28.9818,-94.9186,2.0,27.2,11111222 
TABS,ioos:station:wmo:42043:1,2005-02-11T04:00:00Z,28.9818,-94.9186,2.0,27.3,11111222 
TABS,ioos:station:wmo:42043:1,2005-02-11T04:30:00Z,28.9818,-94.9186,2.0,27.11,11111222 
TABS,ioos:station:wmo:42043:1,2005-02-11T05:00:00Z,28.9818,-94.9186,2.0,27.1,11111222 
TABS,ioos:station:wmo:42043:1,2005-02-11T05:30:00Z,28.9818,-94.9186,2.0,27.2,11111222 
TABS,ioos:station:wmo:42043:1,2005-02-11T06:00:00Z,28.9818,-94.9186,2.0,26.97,11111222 
TABS,ioos:station:wmo:42043:1,2005-02-11T06:30:00Z,28.9818,-94.9186,2.0,26.79,11111222 
TABS,ioos:station:wmo:42043:1,2005-02-11T07:00:00Z,28.9818,-94.9186,2.0,26.78,11111222 
TABS,ioos:station:wmo:42043:1,2005-02-11T07:30:00Z,28.9818,-94.9186,2.0,27.0,11111222 
TABS,ioos:station:wmo:42043:1,2005-02-11T08:00:00Z,28.9818,-94.9186,2.0,27.02,11111222 
TABS,ioos:station:wmo:42043:1,2005-02-11T08:30:00Z,28.9818,-94.9186,2.0,27.0,11111222 
TABS,ioos:station:wmo:42043:1,2005-02-11T09:00:00Z,28.9818,-94.9186,2.0,26.72,11111222 
TABS,ioos:station:wmo:42043:1,2005-02-11T09:30:00Z,28.9818,-94.9186,2.0,26.63,11111222 
TABS,ioos:station:wmo:42043:1,2005-02-11T10:00:00Z,28.9818,-94.9186,2.0,26.57,11111222 
TABS,ioos:station:wmo:42043:1,2005-02-11T10:30:00Z,28.9818,-94.9186,2.0,26.55,11111222 
TABS,ioos:station:wmo:42043:1,2005-02-11T11:00:00Z,28.9818,-94.9186,2.0,26.29,11111222 
TABS,ioos:station:wmo:42043:1,2005-02-11T11:30:00Z,28.9818,-94.9186,2.0,26.32,11111222 
TABS,ioos:station:wmo:42043:1,2005-02-11T12:00:00Z,28.9818,-94.9186,2.0,26.3,11111222 
TABS,ioos:station:wmo:42043:1,2005-02-11T12:30:00Z,28.9818,-94.9186,2.0,25.82,11111222 
TABS,ioos:station:wmo:42043:1,2005-02-11T13:00:00Z,28.9818,-94.9186,2.0,25.8,11111222 
TABS,ioos:station:wmo:42043:1,2005-02-11T13:30:00Z,28.9818,-94.9186,2.0,25.67,11111222 
TABS,ioos:station:wmo:42043:1,2005-02-11T14:00:00Z,28.9818,-94.9186,2.0,25.82,11111222 
TABS,ioos:station:wmo:42043:1,2005-02-11T14:30:00Z,28.9818,-94.9186,2.0,25.75,11111222 
TABS,ioos:station:wmo:42043:1,2005-02-11T15:00:00Z,28.9818,-94.9186,2.0,25.8,11111222 
TABS,ioos:station:wmo:42043:1,2005-02-11T15:30:00Z,28.9818,-94.9186,2.0,25.57,11111222 
TABS,ioos:station:wmo:42043:1,2005-02-11T16:00:00Z,28.9818,-94.9186,2.0,25.62,11111222 
TABS,ioos:station:wmo:42043:1,2005-02-11T16:30:00Z,28.9818,-94.9186,2.0,25.48,11111222 
TABS,ioos:station:wmo:42043:1,2005-02-11T17:00:00Z,28.9818,-94.9186,2.0,25.35,11111222 
TABS,ioos:station:wmo:42043:1,2005-02-11T17:30:00Z,28.9818,-94.9186,2.0,25.43,11111222 
TABS,ioos:station:wmo:42043:1,2005-02-11T18:00:00Z,28.9818,-94.9186,2.0,25.36,11111222 
TABS,ioos:station:wmo:42043:1,2005-02-11T18:30:00Z,28.9818,-94.9186,2.0,25.22,11111222 
TABS,ioos:station:wmo:42043:1,2005-02-11T19:00:00Z,28.9818,-94.9186,2.0,24.97,11111222 
TABS,ioos:station:wmo:42043:1,2005-02-11T19:30:00Z,28.9818,-94.9186,2.0,24.88,11111222 
TABS,ioos:station:wmo:42043:1,2005-02-11T20:00:00Z,28.9818,-94.9186,2.0,25.0,11111222 
TABS,ioos:station:wmo:42043:1,2005-02-11T20:30:00Z,28.9818,-94.9186,2.0,24.78,11111222 
TABS,ioos:station:wmo:42043:1,2005-02-11T21:00:00Z,28.9818,-94.9186,2.0,24.75,11111222 
TABS,ioos:station:wmo:42043:1,2005-02-11T21:30:00Z,28.9818,-94.9186,2.0,24.85,11111222 
TABS,ioos:station:wmo:42043:1,2005-02-11T22:00:00Z,28.9818,-94.9186,2.0,24.97,11111222 
TABS,ioos:station:wmo:42043:1,2005-02-11T22:30:00Z,28.9818,-94.9186,2.0,24.96,11111222 
TABS,ioos:station:wmo:42043:1,2005-02-11T23:00:00Z,28.9818,-94.9186,2.0,25.04,11111222 
TABS,ioos:station:wmo:42043:1,2005-02-11T23:30:00Z,28.9818,-94.9186,2.0,25.08,11111222 
TABS,ioos:station:wmo:42043:1,2005-02-12T00:00:00Z,28.9818,-94.9186,2.0,25.02,11111222 
TABS,ioos:station:wmo:42043:1,2005-02-12T00:30:00Z,28.9818,-94.9186,2.0,24.91,11111222 
TABS,ioos:station:wmo:42043:1,2005-02-12T01:00:00Z,28.9818,-94.9186,2.0,24.86,11111222 
TABS,ioos:station:wmo:42043:1,2005-02-12T01:30:00Z,28.9818,-94.9186,2.0,24.65,11111222 
TABS,ioos:station:wmo:42043:1,2005-02-12T02:00:00Z,28.9818,-94.9186,2.0,24.61,11111222 
TABS,ioos:station:wmo:42043:1,2005-02-12T02:30:00Z,28.9818,-94.9186,2.0,24.49,11111222 
TABS,ioos:station:wmo:42043:1,2005-02-12T03:00:00Z,28.9818,-94.9186,2.0,24.36,11111222 
TABS,ioos:station:wmo:42043:1,2005-02-12T03:30:00Z,28.9818,-94.9186,2.0,24.37,11111222 
TABS,ioos:station:wmo:42043:1,2005-02-12T04:00:00Z,28.9818,-94.9186,2.0,24.11,11111222 
TABS,ioos:station:wmo:42043:1,2005-02-12T04:30:00Z,28.9818,-94.9186,2.0,24.19,11111222 
TABS,ioos:station:wmo:42043:1,2005-02-12T05:00:00Z,28.9818,-94.9186,2.0,24.14,11111222 
TABS,ioos:station:wmo:42043:1,2005-02-12T05:30:00Z,28.9818,-94.9186,2.0,24.08,11111222 
TABS,ioos:station:wmo:42043:1,2005-02-12T06:00:00Z,28.9818,-94.9186,2.0,24.14,11111222 
TABS,ioos:station:wmo:42043:1,2005-02-12T06:30:00Z,28.9818,-94.9186,2.0,24.35,11111222 
TABS,ioos:station:wmo:42043:1,2005-02-12T07:00:00Z,28.9818,-94.9186,2.0,24.31,11111222 
TABS,ioos:station:wmo:42043:1,2005-02-12T07:30:00Z,28.9818,-94.9186,2.0,24.21,11111222 
TABS,ioos:station:wmo:42043:1,2005-02-12T08:00:00Z,28.9818,-94.9186,2.0,23.83,11111222 
TABS,ioos:station:wmo:42043:1,2005-02-12T08:30:00Z,28.9818,-94.9186,2.0,23.67,11111222 
TABS,ioos:station:wmo:42043:1,2005-02-12T09:00:00Z,28.9818,-94.9186,2.0,23.67,11111222 
TABS,ioos:station:wmo:42043:1,2005-02-12T09:30:00Z,28.9818,-94.9186,2.0,23.61,11111222 
TABS,ioos:station:wmo:42043:1,2005-02-12T10:00:00Z,28.9818,-94.9186,2.0,23.57,11111222 
TABS,ioos:station:wmo:42043:1,2005-02-12T10:30:00Z,28.9818,-94.9186,2.0,23.53,11111222 
TABS,ioos:station:wmo:42043:1,2005-02-12T11:00:00Z,28.9818,-94.9186,2.0,23.43,11111222 
TABS,ioos:station:wmo:42043:1,2005-02-12T11:30:00Z,28.9818,-94.9186,2.0,23.37,11111222 
TABS,ioos:station:wmo:42043:1,2005-02-12T12:00:00Z,28.9818,-94.9186,2.0,23.38,11111222 
TABS,ioos:station:wmo:42043:1,2005-02-12T12:30:00Z,28.9818,-94.9186,2.0,23.41,11111222 
TABS,ioos:station:wmo:42043:1,2005-02-12T13:00:00Z,28.9818,-94.9186,2.0,23.3,11111222 
TABS,ioos:station:wmo:42043:1,2005-02-12T13:30:00Z,28.9818,-94.9186,2.0,23.51,11111222 
TABS,ioos:station:wmo:42043:1,2005-02-12T14:00:00Z,28.9818,-94.9186,2.0,23.56,11111222 
TABS,ioos:station:wmo:42043:1,2005-02-12T14:30:00Z,28.9818,-94.9186,2.0,23.75,11111222 
TABS,ioos:station:wmo:42043:1,2005-02-12T15:00:00Z,28.9818,-94.9186,2.0,24.38,11111222 
TABS,ioos:station:wmo:42043:1,2005-02-12T15:30:00Z,28.9818,-94.9186,2.0,24.95,11111222 
TABS,ioos:station:wmo:42043:1,2005-02-12T16:00:00Z,28.9818,-94.9186,2.0,25.76,11111222 
TABS,ioos:station:wmo:42043:1,2005-02-12T16:30:00Z,28.9818,-94.9186,2.0,26.42,11111222 
TABS,ioos:station:wmo:42043:1,2005-02-12T17:00:00Z,28.9818,-94.9186,2.0,26.99,11111222 
TABS,ioos:station:wmo:42043:1,2005-02-12T17:30:00Z,28.9818,-94.9186,2.0,28.0,11111222 
TABS,ioos:station:wmo:42043:1,2005-02-12T18:00:00Z,28.9818,-94.9186,2.0,28.32,11111222 
TABS,ioos:station:wmo:42043:1,2005-02-12T18:30:00Z,28.9818,-94.9186,2.0,28.56,11111222 
TABS,ioos:station:wmo:42043:1,2005-02-12T19:00:00Z,28.9818,-94.9186,2.0,28.95,11111222 
TABS,ioos:station:wmo:42043:1,2005-02-12T19:30:00Z,28.9818,-94.9186,2.0,28.95,11111222 
TABS,ioos:station:wmo:42043:1,2005-02-12T20:00:00Z,28.9818,-94.9186,2.0,28.9,11111222 
TABS,ioos:station:wmo:42043:1,2005-02-12T20:30:00Z,28.9818,-94.9186,2.0,28.92,11111222 
TABS,ioos:station:wmo:42043:1,2005-02-12T21:00:00Z,28.9818,-94.9186,2.0,28.81,11111222 
TABS,ioos:station:wmo:42043:1,2005-02-12T21:30:00Z,28.9818,-94.9186,2.0,28.51,11111222 
TABS,ioos:station:wmo:42043:1,2005-02-12T22:00:00Z,28.9818,-94.9186,2.0,28.45,11111222 
TABS,ioos:station:wmo:42043:1,2005-02-12T22:30:00Z,28.9818,-94.9186,2.0,28.43,11111222 
TABS,ioos:station:wmo:42043:1,2005-02-12T23:00:00Z,28.9818,-94.9186,2.0,28.44,11111222 
TABS,ioos:station:wmo:42043:1,2005-02-12T23:30:00Z,28.9818,-94.9186,2.0,28.47,11111222 
TABS,ioos:station:wmo:42043:1,2005-02-13T00:00:00Z,28.9818,-94.9186,2.0,28.49,11111222 
TABS,ioos:station:wmo:42043:1,2005-02-13T00:30:00Z,28.9818,-94.9186,2.0,28.51,11111222 
TABS,ioos:station:wmo:42043:1,2005-02-13T01:00:00Z,28.9818,-94.9186,2.0,28.52,11111222 
TABS,ioos:station:wmo:42043:1,2005-02-13T01:30:00Z,28.9818,-94.9186,2.0,28.53,11111222 
TABS,ioos:station:wmo:42043:1,2005-02-13T02:00:00Z,28.9818,-94.9186,2.0,28.51,11111222 
TABS,ioos:station:wmo:42043:1,2005-02-13T02:30:00Z,28.9818,-94.9186,2.0,28.56,11111222 
TABS,ioos:station:wmo:42043:1,2005-02-13T03:00:00Z,28.9818,-94.9186,2.0,28.82,11111222 
TABS,ioos:station:wmo:42043:1,2005-02-13T03:30:00Z,28.9818,-94.9186,2.0,28.89,11111222 
TABS,ioos:station:wmo:42043:1,2005-02-13T04:00:00Z,28.9818,-94.9186,2.0,27.71,11111222 
TABS,ioos:station:wmo:42043:1,2005-02-13T04:30:00Z,28.9818,-94.9186,2.0,27.77,11111222 
TABS,ioos:station:wmo:42043:1,2005-02-13T05:00:00Z,28.9818,-94.9186,2.0,27.59,11111222 
TABS,ioos:station:wmo:42043:1,2005-02-13T05:30:00Z,28.9818,-94.9186,2.0,27.57,11111222 
TABS,ioos:station:wmo:42043:1,2005-02-13T06:00:00Z,28.9818,-94.9186,2.0,27.53,11111222 
TABS,ioos:station:wmo:42043:1,2005-02-13T06:30:00Z,28.9818,-94.9186,2.0,27.48,11111222 
TABS,ioos:station:wmo:42043:1,2005-02-13T07:00:00Z,28.9818,-94.9186,2.0,27.12,11111222 
TABS,ioos:station:wmo:42043:1,2005-02-13T07:30:00Z,28.9818,-94.9186,2.0,27.23,11111222 
TABS,ioos:station:wmo:42043:1,2005-02-13T08:00:00Z,28.9818,-94.9186,2.0,25.13,11111222 
TABS,ioos:station:wmo:42043:1,2005-02-13T08:30:00Z,28.9818,-94.9186,2.0,27.23,11111222 
TABS,ioos:station:wmo:42043:1,2005-02-13T09:00:00Z,28.9818,-94.9186,2.0,27.53,11111222 
TABS,ioos:station:wmo:42043:1,2005-02-13T09:30:00Z,28.9818,-94.9186,2.0,27.61,11111222 
TABS,ioos:station:wmo:42043:1,2005-02-13T10:00:00Z,28.9818,-94.9186,2.0,27.68,11111222 
TABS,ioos:station:wmo:42043:1,2005-02-13T10:30:00Z,28.9818,-94.9186,2.0,27.73,11111222 
TABS,ioos:station:wmo:42043:1,2005-02-13T11:00:00Z,28.9818,-94.9186,2.0,27.95,11111222 
TABS,ioos:station:wmo:42043:1,2005-02-13T11:30:00Z,28.9818,-94.9186,2.0,28.21,11111222 
TABS,ioos:station:wmo:42043:1,2005-02-13T12:00:00Z,28.9818,-94.9186,2.0,28.37,11111222 
TABS,ioos:station:wmo:42043:1,2005-02-13T12:30:00Z,28.9818,-94.9186,2.0,28.51,11111222 
TABS,ioos:station:wmo:42043:1,2005-02-13T13:00:00Z,28.9818,-94.9186,2.0,28.7,11111222 
TABS,ioos:station:wmo:42043:1,2005-02-13T13:30:00Z,28.9818,-94.9186,2.0,28.84,11111222 
TABS,ioos:station:wmo:42043:1,2005-02-13T14:00:00Z,28.9818,-94.9186,2.0,29.05,11111222 
TABS,ioos:station:wmo:42043:1,2005-02-13T14:30:00Z,28.9818,-94.9186,2.0,29.26,11111222 
TABS,ioos:station:wmo:42043:1,2005-02-13T15:00:00Z,28.9818,-94.9186,2.0,29.13,11111222 
TABS,ioos:station:wmo:42043:1,2005-02-13T15:30:00Z,28.9818,-94.9186,2.0,28.55,11111222 
TABS,ioos:station:wmo:42043:1,2005-02-13T16:00:00Z,28.9818,-94.9186,2.0,28.49,11111222 
TABS,ioos:station:wmo:42043:1,2005-02-13T16:30:00Z,28.9818,-94.9186,2.0,28.4,11111222 
TABS,ioos:station:wmo:42043:1,2005-02-13T17:00:00Z,28.9818,-94.9186,2.0,28.38,11111222 
TABS,ioos:station:wmo:42043:1,2005-02-13T17:30:00Z,28.9818,-94.9186,2.0,28.37,11111222 
TABS,ioos:station:wmo:42043:1,2005-02-13T18:00:00Z,28.9818,-94.9186,2.0,27.75,11111222 
TABS,ioos:station:wmo:42043:1,2005-02-13T18:30:00Z,28.9818,-94.9186,2.0,27.49,11111222 
TABS,ioos:station:wmo:42043:1,2005-02-13T19:00:00Z,28.9818,-94.9186,2.0,27.61,11111222 
TABS,ioos:station:wmo:42043:1,2005-02-13T19:30:00Z,28.9818,-94.9186,2.0,27.55,11111222 
TABS,ioos:station:wmo:42043:1,2005-02-13T20:00:00Z,28.9818,-94.9186,2.0,27.43,11111222 
TABS,ioos:station:wmo:42043:1,2005-02-13T20:30:00Z,28.9818,-94.9186,2.0,27.48,11111222 
TABS,ioos:station:wmo:42043:1,2005-02-13T21:00:00Z,28.9818,-94.9186,2.0,27.68,11111222 
TABS,ioos:station:wmo:42043:1,2005-02-13T21:30:00Z,28.9818,-94.9186,2.0,27.89,11111222 
TABS,ioos:station:wmo:42043:1,2005-02-13T22:00:00Z,28.9818,-94.9186,2.0,27.95,11111222 
TABS,ioos:station:wmo:42043:1,2005-02-13T22:30:00Z,28.9818,-94.9186,2.0,28.01,11111222 
TABS,ioos:station:wmo:42043:1,2005-02-13T23:00:00Z,28.9818,-94.9186,2.0,28.02,11111222 
TABS,ioos:station:wmo:42043:1,2005-02-13T23:30:00Z,28.9818,-94.9186,2.0,28.07,11111222 
TABS,ioos:station:wmo:42043:1,2005-02-14T00:00:00Z,28.9818,-94.9186,2.0,26.89,11111222 
TABS,ioos:station:wmo:42043:1,2005-02-14T00:30:00Z,28.9818,-94.9186,2.0,26.23,11111222 
TABS,ioos:station:wmo:42043:1,2005-02-14T01:00:00Z,28.9818,-94.9186,2.0,25.25,11111222 
TABS,ioos:station:wmo:42043:1,2005-02-14T01:30:00Z,28.9818,-94.9186,2.0,24.42,11111222 
TABS,ioos:station:wmo:42043:1,2005-02-14T02:00:00Z,28.9818,-94.9186,2.0,26.98,11111222 
TABS,ioos:station:wmo:42043:1,2005-02-14T02:30:00Z,28.9818,-94.9186,2.0,23.41,11111222 
TABS,ioos:station:wmo:42043:1,2005-02-14T03:00:00Z,28.9818,-94.9186,2.0,24.63,11111222 
TABS,ioos:station:wmo:42043:1,2005-02-14T03:30:00Z,28.9818,-94.9186,2.0,23.09,11111222 
TABS,ioos:station:wmo:42043:1,2005-02-14T04:00:00Z,28.9818,-94.9186,2.0,23.07,11111222 
TABS,ioos:station:wmo:42043:1,2005-02-14T04:30:00Z,28.9818,-94.9186,2.0,23.07,11111222 
TABS,ioos:station:wmo:42043:1,2005-02-14T05:00:00Z,28.9818,-94.9186,2.0,23.04,11111222 
TABS,ioos:station:wmo:42043:1,2005-02-14T05:30:00Z,28.9818,-94.9186,2.0,22.94,11111222 
TABS,ioos:station:wmo:42043:1,2005-02-14T06:00:00Z,28.9818,-94.9186,2.0,22.87,11111222 
TABS,ioos:station:wmo:42043:1,2005-02-14T06:30:00Z,28.9818,-94.9186,2.0,22.64,11111222 
TABS,ioos:station:wmo:42043:1,2005-02-14T07:00:00Z,28.9818,-94.9186,2.0,22.61,11111222 
TABS,ioos:station:wmo:42043:1,2005-02-14T07:30:00Z,28.9818,-94.9186,2.0,22.54,11111222 
TABS,ioos:station:wmo:42043:1,2005-02-14T08:00:00Z,28.9818,-94.9186,2.0,22.5,11111222 
TABS,ioos:station:wmo:42043:1,2005-02-14T08:30:00Z,28.9818,-94.9186,2.0,22.48,11111222 
TABS,ioos:station:wmo:42043:1,2005-02-14T09:00:00Z,28.9818,-94.9186,2.0,22.49,11111222 
TABS,ioos:station:wmo:42043:1,2005-02-14T09:30:00Z,28.9818,-94.9186,2.0,22.49,11111222 
TABS,ioos:station:wmo:42043:1,2005-02-14T10:00:00Z,28.9818,-94.9186,2.0,22.49,11111222 
TABS,ioos:station:wmo:42043:1,2005-02-14T10:30:00Z,28.9818,-94.9186,2.0,22.51,11111222 
TABS,ioos:station:wmo:42043:1,2005-02-14T11:00:00Z,28.9818,-94.9186,2.0,22.54,11111222 
TABS,ioos:station:wmo:42043:1,2005-02-14T11:30:00Z,28.9818,-94.9186,2.0,22.65,11111222 
TABS,ioos:station:wmo:42043:1,2005-02-14T12:00:00Z,28.9818,-94.9186,2.0,22.76,11111222 
TABS,ioos:station:wmo:42043:1,2005-02-14T12:30:00Z,28.9818,-94.9186,2.0,22.85,11111222 
TABS,ioos:station:wmo:42043:1,2005-02-14T13:00:00Z,28.9818,-94.9186,2.0,22.99,11111222 
TABS,ioos:station:wmo:42043:1,2005-02-14T13:30:00Z,28.9818,-94.9186,2.0,23.08,11111222 
TABS,ioos:station:wmo:42043:1,2005-02-14T14:00:00Z,28.9818,-94.9186,2.0,23.22,11111222 
TABS,ioos:station:wmo:42043:1,2005-02-14T14:30:00Z,28.9818,-94.9186,2.0,23.23,11111222 
TABS,ioos:station:wmo:42043:1,2005-02-14T15:00:00Z,28.9818,-94.9186,2.0,23.32,11111222 
TABS,ioos:station:wmo:42043:1,2005-02-14T15:30:00Z,28.9818,-94.9186,2.0,23.35,11111222 
TABS,ioos:station:wmo:42043:1,2005-02-14T16:00:00Z,28.9818,-94.9186,2.0,23.44,11111222 
TABS,ioos:station:wmo:42043:1,2005-02-14T16:30:00Z,28.9818,-94.9186,2.0,23.3,11111222 
TABS,ioos:station:wmo:42043:1,2005-02-14T17:00:00Z,28.9818,-94.9186,2.0,23.24,11111222 
TABS,ioos:station:wmo:42043:1,2005-02-14T17:30:00Z,28.9818,-94.9186,2.0,23.08,11111222 
TABS,ioos:station:wmo:42043:1,2005-02-14T18:00:00Z,28.9818,-94.9186,2.0,23.02,11111222 
TABS,ioos:station:wmo:42043:1,2005-02-14T18:30:00Z,28.9818,-94.9186,2.0,22.82,11111222 
TABS,ioos:station:wmo:42043:1,2005-02-14T19:00:00Z,28.9818,-94.9186,2.0,22.76,11111222 
TABS,ioos:station:wmo:42043:1,2005-02-14T19:30:00Z,28.9818,-94.9186,2.0,22.53,11111222 
TABS,ioos:station:wmo:42043:1,2005-02-14T20:00:00Z,28.9818,-94.9186,2.0,22.48,11111222 
TABS,ioos:station:wmo:42043:1,2005-02-14T20:30:00Z,28.9818,-94.9186,2.0,22.47,11111222 
TABS,ioos:station:wmo:42043:1,2005-02-14T21:00:00Z,28.9818,-94.9186,2.0,22.45,11111222 
TABS,ioos:station:wmo:42043:1,2005-02-14T21:30:00Z,28.9818,-94.9186,2.0,22.39,11111222 
TABS,ioos:station:wmo:42043:1,2005-02-14T22:00:00Z,28.9818,-94.9186,2.0,22.36,11111222 
TABS,ioos:station:wmo:42043:1,2005-02-14T22:30:00Z,28.9818,-94.9186,2.0,22.32,11111222 
TABS,ioos:station:wmo:42043:1,2005-02-14T23:00:00Z,28.9818,-94.9186,2.0,22.07,11111222 
TABS,ioos:station:wmo:42043:1,2005-02-14T23:30:00Z,28.9818,-94.9186,2.0,22.2,11111222 
TABS,ioos:station:wmo:42043:1,2005-02-15T00:00:00Z,28.9818,-94.9186,2.0,22.2,11111222 
TABS,ioos:station:wmo:42043:1,2005-02-15T00:30:00Z,28.9818,-94.9186,2.0,22.28,11111222 
TABS,ioos:station:wmo:42043:1,2005-02-15T01:00:00Z,28.9818,-94.9186,2.0,22.31,11111222 
TABS,ioos:station:wmo:42043:1,2005-02-15T01:30:00Z,28.9818,-94.9186,2.0,22.38,11111222 
TABS,ioos:station:wmo:42043:1,2005-02-15T02:00:00Z,28.9818,-94.9186,2.0,22.27,11111222 
TABS,ioos:station:wmo:42043:1,2005-02-15T02:30:00Z,28.9818,-94.9186,2.0,22.26,11111222 
TABS,ioos:station:wmo:42043:1,2005-02-15T03:00:00Z,28.9818,-94.9186,2.0,22.25,11111222 
TABS,ioos:station:wmo:42043:1,2005-02-15T03:30:00Z,28.9818,-94.9186,2.0,22.31,11111222 
TABS,ioos:station:wmo:42043:1,2005-02-15T04:00:00Z,28.9818,-94.9186,2.0,22.27,11111222 
TABS,ioos:station:wmo:42043:1,2005-02-15T04:30:00Z,28.9818,-94.9186,2.0,22.22,11111222 
TABS,ioos:station:wmo:42043:1,2005-02-15T05:00:00Z,28.9818,-94.9186,2.0,22.1,11111222 
TABS,ioos:station:wmo:42043:1,2005-02-15T05:30:00Z,28.9818,-94.9186,2.0,22.08,11111222 
TABS,ioos:station:wmo:42043:1,2005-02-15T06:00:00Z,28.9818,-94.9186,2.0,22.04,11111222 
TABS,ioos:station:wmo:42043:1,2005-02-15T06:30:00Z,28.9818,-94.9186,2.0,22.0,11111222 